• In Netherlands
  • List of Countries
  • For 7 days
  • Water Temperature
  • Satellite Maps
  • Weather Map
  • Weather Widgets
  • user-avatar
    Login

    Hourly Weather San Juan

    Today, 1 May, Monday

    Time Temperature Precipitation Wind Pressure Humidity
    00:00 +18°C° 0 mm 2 mps 706 mmHg 35%
    01:00 +18°C° 0 mm 2 mps 706 mmHg 35%
    02:00 +18°C° 0 mm 2 mps 706 mmHg 34%
    03:00 +17°C° 0 mm 2 mps 706 mmHg 34%
    04:00 +17°C° 0 mm 2 mps 705 mmHg 34%
    05:00 +17°C° 0 mm 2 mps 706 mmHg 32%
    06:00 +18°C° 0 mm 2 mps 706 mmHg 31%
    07:00 +18°C° 0 mm 2 mps 706 mmHg 30%
    08:00 +21°C° 0 mm 2 mps 706 mmHg 25%
    09:00 +25°C° 0 mm 2 mps 706 mmHg 21%
    10:00 +27°C° 0 mm 2 mps 707 mmHg 16%
    11:00 +28°C° 0 mm 3 mps 706 mmHg 14%
    12:00 +29°C° 0 mm 3 mps 706 mmHg 13%
    13:00 +30°C° 0 mm 3 mps 705 mmHg 11%
    14:00 +30°C° 0 mm 2 mps 705 mmHg 11%
    15:00 +29°C° 0 mm 2 mps 704 mmHg 11%
    16:00 +29°C° 0 mm 2 mps 704 mmHg 12%
    17:00 +26°C° 0 mm 2 mps 704 mmHg 14%
    18:00 +24°C° 0 mm 1 mps 704 mmHg 17%
    19:00 +21°C° 0 mm 1 mps 704 mmHg 19%
    20:00 +20°C° 0 mm 2 mps 704 mmHg 20%
    21:00 +20°C° 0 mm 2 mps 704 mmHg 21%
    22:00 +20°C° 0 mm 2 mps 704 mmHg 21%
    23:00 +20°C° 0 mm 2 mps 703 mmHg 23%

    Tomorrow, 2 May, Tuesday

    Time Temperature Precipitation Wind Pressure Humidity
    00:00 +19°C° 0 mm 3 mps 703 mmHg 26%
    01:00 +19°C° 0 mm 3 mps 703 mmHg 28%
    02:00 +19°C° 0 mm 3 mps 703 mmHg 29%
    03:00 +19°C° 0 mm 3 mps 702 mmHg 30%
    04:00 +18°C° 0 mm 2 mps 702 mmHg 32%
    05:00 +18°C° 0 mm 2 mps 702 mmHg 32%
    06:00 +18°C° 0 mm 2 mps 703 mmHg 31%
    07:00 +19°C° 0 mm 2 mps 703 mmHg 31%
    08:00 +21°C° 0 mm 2 mps 703 mmHg 26%
    09:00 +25°C° 0 mm 2 mps 703 mmHg 21%
    10:00 +28°C° 0 mm 2 mps 704 mmHg 16%
    11:00 +29°C° 0 mm 2 mps 703 mmHg 15%
    12:00 +30°C° 0 mm 2 mps 703 mmHg 13%
    13:00 +31°C° 0 mm 2 mps 702 mmHg 11%
    14:00 +30°C° 0 mm 3 mps 703 mmHg 13%
    15:00 +29°C° 0 mm 3 mps 703 mmHg 15%
    16:00 +29°C° 0 mm 3 mps 703 mmHg 16%
    17:00 +27°C° 0 mm 3 mps 704 mmHg 23%
    18:00 +25°C° 0 mm 4 mps 705 mmHg 31%
    19:00 +21°C° 0 mm 4 mps 706 mmHg 38%
    20:00 +21°C° 0 mm 4 mps 707 mmHg 39%
    21:00 +20°C° 0 mm 3 mps 707 mmHg 40%
    22:00 +20°C° 0 mm 3 mps 708 mmHg 41%
    23:00 +19°C° 0.2 mm 3 mps 709 mmHg 42%

    Day after tomorrow, 3 May, Wednesday

    Time Temperature Precipitation Wind Pressure Humidity
    00:00 +19°C° 0.2 mm 3 mps 709 mmHg 43%
    01:00 +18°C° 0.2 mm 3 mps 709 mmHg 44%
    02:00 +17°C° 0 mm 3 mps 709 mmHg 46%
    03:00 +17°C° 0 mm 2 mps 709 mmHg 48%
    04:00 +16°C° 0 mm 2 mps 709 mmHg 50%
    05:00 +16°C° 0 mm 2 mps 709 mmHg 52%
    06:00 +17°C° 0 mm 2 mps 710 mmHg 54%
    07:00 +17°C° 0 mm 2 mps 710 mmHg 56%
    08:00 +18°C° 0 mm 2 mps 710 mmHg 55%
    09:00 +20°C° 0 mm 2 mps 710 mmHg 54%
    10:00 +21°C° 0 mm 3 mps 710 mmHg 53%
    11:00 +23°C° 0 mm 2 mps 709 mmHg 50%
    12:00 +24°C° 0 mm 2 mps 708 mmHg 47%
    13:00 +24°C° 0 mm 1 mps 707 mmHg 45%
    14:00 +24°C° 0 mm 1 mps 707 mmHg 44%
    15:00 +24°C° 0 mm 1 mps 706 mmHg 43%
    16:00 +24°C° 0 mm 1 mps 706 mmHg 42%
    17:00 +22°C° 0 mm 1 mps 706 mmHg 46%
    18:00 +21°C° 0 mm 1 mps 706 mmHg 51%
    19:00 +19°C° 0 mm 1 mps 705 mmHg 56%
    20:00 +19°C° 0 mm 1 mps 705 mmHg 56%
    21:00 +19°C° 0 mm 1 mps 705 mmHg 55%
    22:00 +18°C° 0 mm 1 mps 705 mmHg 55%
    23:00 +17°C° 0 mm 2 mps 704 mmHg 55%

    4 May, Thursday

    Time Temperature Precipitation Wind Pressure Humidity
    00:00 +17°C° 0 mm 2 mps 704 mmHg 55%
    01:00 +17°C° 0 mm 2 mps 703 mmHg 56%
    02:00 +17°C° 0 mm 2 mps 703 mmHg 57%
    03:00 +17°C° 0 mm 2 mps 702 mmHg 58%
    04:00 +16°C° 0 mm 2 mps 702 mmHg 59%
    05:00 +17°C° 0 mm 2 mps 702 mmHg 58%
    06:00 +17°C° 0 mm 2 mps 703 mmHg 57%
    07:00 +18°C° 0 mm 1 mps 703 mmHg 56%
    08:00 +20°C° 0 mm 1 mps 704 mmHg 48%
    09:00 +23°C° 0 mm 1 mps 704 mmHg 41%
    10:00 +25°C° 0 mm 1 mps 704 mmHg 34%
    11:00 +26°C° 0 mm 1 mps 704 mmHg 31%
    12:00 +27°C° 0 mm 2 mps 704 mmHg 29%
    13:00 +27°C° 0 mm 2 mps 703 mmHg 27%
    14:00 +27°C° 0 mm 2 mps 703 mmHg 28%
    15:00 +27°C° 0 mm 2 mps 703 mmHg 30%
    16:00 +26°C° 0 mm 2 mps 704 mmHg 32%
    17:00 +24°C° 0 mm 2 mps 704 mmHg 40%
    18:00 +22°C° 0 mm 1 mps 704 mmHg 48%
    19:00 +20°C° 0 mm 1 mps 705 mmHg 56%
    20:00 +20°C° 0 mm 1 mps 705 mmHg 57%
    21:00 +19°C° 0 mm 1 mps 705 mmHg 58%
    22:00 +19°C° 0 mm 1 mps 705 mmHg 59%
    23:00 +19°C° 0 mm 1 mps 705 mmHg 57%

    5 May, Friday

    Time Temperature Precipitation Wind Pressure Humidity
    00:00 +19°C° 0 mm 1 mps 705 mmHg 55%
    01:00 +19°C° 0 mm 1 mps 705 mmHg 53%
    02:00 +18°C° 0 mm 1 mps 705 mmHg 54%
    03:00 +18°C° 0 mm 1 mps 705 mmHg 55%
    04:00 +18°C° 0 mm 1 mps 705 mmHg 56%
    05:00 +18°C° 0 mm 1 mps 705 mmHg 56%
    06:00 +18°C° 0 mm 1 mps 705 mmHg 56%
    07:00 +19°C° 0 mm 1 mps 706 mmHg 56%
    08:00 +20°C° 0 mm 2 mps 706 mmHg 47%
    09:00 +24°C° 0 mm 2 mps 706 mmHg 39%
    10:00 +27°C° 0 mm 3 mps 706 mmHg 31%
    11:00 +28°C° 0 mm 3 mps 705 mmHg 27%
    12:00 +29°C° 0 mm 3 mps 705 mmHg 23%
    13:00 +30°C° 0 mm 3 mps 704 mmHg 20%
    14:00 +29°C° 0 mm 3 mps 704 mmHg 21%
    15:00 +29°C° 0 mm 3 mps 703 mmHg 22%
    16:00 +28°C° 0 mm 3 mps 703 mmHg 24%
    17:00 +26°C° 0 mm 2 mps 703 mmHg 30%
    18:00 +24°C° 0 mm 2 mps 703 mmHg 36%
    19:00 +21°C° 0 mm 2 mps 703 mmHg 43%
    20:00 +21°C° 0 mm 2 mps 703 mmHg 47%
    21:00 +21°C° 0 mm 3 mps 703 mmHg 51%
    22:00 +20°C° 0 mm 3 mps 703 mmHg 56%
    23:00 +20°C° 0 mm 3 mps 702 mmHg 57%

    6 May, Saturday

    Time Temperature Precipitation Wind Pressure Humidity
    00:00 +20°C° 0 mm 3 mps 702 mmHg 58%
    01:00 +19°C° 0 mm 3 mps 701 mmHg 59%
    02:00 +19°C° 0 mm 4 mps 701 mmHg 58%
    03:00 +19°C° 0 mm 4 mps 701 mmHg 57%
    04:00 +19°C° 0 mm 4 mps 700 mmHg 57%
    05:00 +19°C° 0 mm 4 mps 701 mmHg 55%
    06:00 +19°C° 0 mm 4 mps 701 mmHg 53%
    07:00 +20°C° 0 mm 4 mps 701 mmHg 51%
    08:00 +22°C° 0 mm 4 mps 701 mmHg 44%
    09:00 +26°C° 0 mm 4 mps 701 mmHg 37%
    10:00 +28°C° 0 mm 4 mps 701 mmHg 30%
    11:00 +29°C° 0 mm 4 mps 701 mmHg 27%
    12:00 +30°C° 0 mm 4 mps 700 mmHg 24%
    13:00 +31°C° 0 mm 3 mps 700 mmHg 21%
    14:00 +31°C° 0 mm 3 mps 700 mmHg 22%
    15:00 +30°C° 0 mm 2 mps 701 mmHg 23%
    16:00 +29°C° 0 mm 2 mps 701 mmHg 24%
    17:00 +27°C° 0 mm 2 mps 702 mmHg 30%
    18:00 +25°C° 0 mm 2 mps 702 mmHg 37%
    19:00 +23°C° 0 mm 1 mps 703 mmHg 43%
    20:00 +22°C° 0 mm 1 mps 703 mmHg 45%
    21:00 +21°C° 0 mm 1 mps 703 mmHg 47%
    22:00 +20°C° 0 mm 1 mps 703 mmHg 49%
    23:00 +20°C° 0 mm 1 mps 703 mmHg 50%
    Show more